Temperature
20 19 19 19 18 18 18 18 18 17 17 17 17 17 17 17 17 16 16 16 16 16 16 16 15 15 15 15 15 15 15 15 14 15 15 15 15 15 15 15 15 15 15
19 19 18 18 18 18 18 18 17 17 17 17 17 17 17 17 16 16 16 16 16 16 15 15 15 15 15 15 15 15 15 14 14 14 14 15 15 15 15 15 15 15 15
19 18 18 18 18 18 18 17 17 17 17 17 16 16 16 16 16 16 16 15 15 15 15 15 15 15 14 14 14 14 14 14 14 14 14 14 14 14 14 14 14 15 15
19 18 18 18 18 18 18 17 17 17 17 16 16 16 16 16 16 16 15 15 15 15 15 15 15 14 14 14 14 14 14 14 14 14 14 14 14 14 14 14 14 14 14
18 18 18 18 17 17 17 17 17 17 16 16 16 16 16 15 15 15 15 15 15 15 15 15 14 14 14 14 14 14 13 13 13 13 13 14 14 14 14 14 14 14 14
18 18 17 17 17 17 17 17 17 16 16 16 16 16 15 15 15 15 15 15 15 14 14 14 14 14 14 14 14 14 13 13 13 13 13 13 13 13 13 13 13 13 13
18 17 17 17 17 17 16 16 16 16 16 16 16 15 15 15 15 15 15 14 14 14 14 14 14 14 14 13 13 13 13 13 13 13 13 13 13 13 13 13 13 13 13
18 17 17 17 16 16 16 16 16 16 16 15 15 15 15 15 15 15 14 14 14 14 14 14 14 13 13 13 13 13 13 13 13 13 13 13 13 13 13 13 12 12 12
17 17 17 16 16 16 16 15 15 15 15 15 15 15 15 15 15 14 14 14 14 14 13 13 13 13 13 13 13 13 13 13 13 13 13 13 13 12 12 12 12 12 12
17 16 16 16 16 15 15 15 15 15 15 14 14 14 14 14 14 14 13 13 13 13 13 13 13 13 13 12 12 12 12 13 12 12 12 12 12 12 12 12 12 12 12
16 16 16 16 15 15 15 15 14 14 14 14 14 14 14 14 14 13 13 13 13 13 13 13 13 13 12 12 12 12 12 12 12 12 12 12 12 12 12 12 12 12 11
16 16 15 15 15 15 14 14 14 14 14 14 14 13 13 13 13 13 13 13 13 12 12 12 12 12 12 12 12 12 12 12 12 12 12 12 12 12 12 12 12 12 11
15 15 15 15 14 14 14 14 13 13 13 13 13 13 13 13 13 13 13 13 13 12 12 12 12 12 12 12 12 12 12 11 11 12 12 12 11 12 11 11 11 11 11
15 14 14 14 14 14 13 13 13 13 13 13 13 13 13 13 13 12 12 12 12 12 12 12 12 12 12 12 12 11 11 11 11 11 11 11 11 11 11 11 11 11 11
14 14 13 13 13 13 13 13 13 13 13 13 13 12 12 12 13 12 12 12 12 12 12 12 12 12 11 11 11 11 11 11 11 11 11 11 11 11 11 11 11 11 10
13 13 13 13 13 13 13 12 12 12 12 12 12 12 12 12 12 12 12 12 12 12 11 11 11 11 11 11 11 11 11 11 11 11 10 10 10 10 10 10 10 10 10
13 13 13 12 12 12 12 12 12 12 12 12 12 12 12 12 12 12 12 12 11 11 11 11 11 10 10 10 11 11 11 11 10 10 10 10 10 10 10 10 10 10 10
13 12 12 12 12 12 12 12 12 12 11 12 12 11 11 11 11 11 11 11 11 11 11 10 10 10 10 10 10 10 10 10 10 10 10 10 10 10 10 10 10 10 10
12 12 12 12 12 12 11 11 11 11 11 11 11 11 11 11 11 11 11 11 10 10 10 10 10 10 10 10 10 10 10 10 10 10 10 9 9 9 9 9 9 9 9
12 12 12 11 11 11 11 11 11 11 11 11 11 10 10 10 10 10 10 10 10 10 10 10 10 10 10 9 9 9 9 9 9 9 9 9 9 9 9 9 9 9 9
11 11 11 11 11 11 11 11 11 11 10 10 10 10 10 10 10 10 10 10 10 9 9 9 9 9 9 9 9 9 9 9 9 9 9 9 9 9 9 9 9 9 8
11 11 11 11 11 11 11 11 10 10 10 10 10 10 10 10 10 9 9 9 9 9 9 9 9 9 9 9 9 9 9 9 9 9 9 9 9 9 8 8 8 8 8
11 11 11 11 11 10 10 10 10 10 10 10 10 9 9 9 9 9 9 9 9 9 9 9 9 9 9 9 9 9 9 9 8 8 8 8 8 8 8 8 8 8 8
10 10 10 10 10 10 10 10 10 10 10 9 9 9 9 9 9 9 9 9 9 9 9 9 9 9 9 9 9 9 8 8 8 8 8 8 8 8 8 8 8 8 8
10 10 10 10 10 10 10 10 9 9 9 9 9 9 9 9 9 9 9 9 8 8 8 8 8 8 8 9 8 8 8 8 8 8 8 8 8 8 8 8 8 8 7
10 10 10 10 10 10 9 9 9 9 9 9 9 9 9 9 8 8 8 8 8 8 8 8 8 8 8 8 8 8 8 8 8 8 8 8 8 8 8 8 8 8 7
Wind_Speed
5 5 5 4 4 3 3 3 3 3 3 2 2 2 2 2 1 1 1 1 1 2 2 2 2 2 2 2 2 2 2 3 3 3 2 3 3 4 4 4 4 5 5
4 4 4 3 3 3 3 3 2 3 3 3 3 3 3 2 2 2 2 2 2 2 2 2 2 2 2 2 2 2 2 3 3 4 3 2 3 3 3 3 3 3 4
4 4 3 4 4 4 3 3 2 3 3 3 3 3 3 3 3 3 3 3 3 3 2 2 2 2 2 2 2 2 3 3 3 3 4 2 2 2 3 3 3 3 4
5 5 4 4 4 4 3 3 3 3 3 3 4 4 3 3 3 3 3 3 3 3 3 2 2 2 3 3 3 3 3 3 3 3 3 3 3 2 2 3 4 3 3
5 5 5 4 3 3 4 4 3 3 4 4 3 3 3 3 3 3 3 4 3 3 3 3 3 3 4 4 3 3 3 3 3 3 4 3 3 2 3 2 3 4 3
4 4 4 3 3 4 4 4 3 3 3 3 3 3 3 3 4 4 3 3 3 3 3 3 4 4 5 5 5 5 5 5 4 4 4 5 5 4 3 3 3 3 3
3 3 3 4 4 5 5 4 4 4 3 3 3 3 4 5 4 4 4 3 3 3 3 3 3 3 3 3 4 5 5 7 7 5 6 6 5 4 4 4 4 4 5
3 3 3 3 4 4 4 4 4 3 3 4 4 4 4 5 4 4 3 2 2 3 3 4 4 4 4 3 4 4 4 5 6 6 6 7 6 5 5 5 5 5 5
2 3 3 3 3 3 4 4 3 3 3 4 4 4 4 5 4 3 3 2 2 3 4 4 4 4 5 4 3 4 5 5 5 5 6 6 6 6 5 3 3 3 4
3 3 3 3 3 4 4 4 3 3 4 4 3 3 4 4 4 3 3 2 2 3 3 4 5 5 5 4 4 4 6 6 5 4 4 5 5 5 5 5 5 5 4
2 2 3 3 3 4 3 3 2 2 3 3 3 3 3 4 3 3 3 3 3 4 4 4 5 6 7 6 5 5 7 6 4 4 4 4 4 4 4 4 5 5 5
2 2 3 3 3 2 1 2 2 2 3 3 3 3 3 3 3 4 4 5 4 4 5 5 5 7 7 7 5 6 6 5 3 3 3 4 4 4 4 4 5 6 6
2 3 3 3 2 2 2 3 2 2 3 3 3 3 4 3 3 5 5 5 5 4 5 6 6 6 5 5 6 6 4 3 3 3 4 4 4 4 4 3 3 3 3
2 3 2 2 2 2 2 2 3 3 4 4 4 4 4 3 3 3 3 3 4 4 4 4 4 4 3 3 3 3 2 3 3 4 4 4 3 3 3 2 2 2 2
2 2 2 2 2 2 2 2 3 4 5 5 5 5 4 5 6 6 4 4 4 4 2 1 1 1 2 2 2 2 2 2 3 3 3 4 3 3 3 2 2 2 2
2 2 2 1 2 2 2 2 3 4 4 5 6 6 5 6 7 6 6 5 4 3 2 2 2 2 3 3 3 3 3 3 3 3 3 3 3 3 3 2 2 2 3
2 3 2 2 2 3 2 2 3 4 3 3 3 4 5 5 5 5 4 3 1 1 2 2 3 3 3 3 3 3 3 3 2 2 3 3 3 3 3 2 2 3 3
2 3 3 3 3 3 3 3 3 3 3 4 3 3 3 4 4 3 1 1 1 0 2 3 3 3 3 3 3 2 2 2 1 2 2 2 2 2 2 3 3 3 2
2 2 2 2 3 3 3 3 3 3 3 3 3 3 3 2 2 1 1 0 1 2 2 3 3 3 3 3 3 2 2 2 2 2 2 2 2 2 2 3 3 3 2
2 3 3 2 2 2 2 3 3 3 3 3 3 3 2 1 1 1 1 1 2 2 3 3 3 3 3 3 2 2 2 2 2 2 2 2 2 2 2 2 2 2 2
2 2 2 2 2 2 2 2 3 2 2 3 3 3 3 2 2 2 2 2 2 3 3 3 3 3 3 2 2 2 2 3 3 3 2 2 2 2 2 2 2 2 2
2 2 1 1 1 1 1 1 2 2 3 3 3 3 3 2 2 2 3 3 3 3 3 3 3 3 2 2 2 2 3 3 3 3 3 3 2 2 2 2 1 1 1
1 1 1 1 1 1 1 1 2 2 2 3 3 3 2 2 3 3 4 4 3 3 3 3 3 3 3 3 3 3 3 4 4 4 3 3 3 2 2 2 1 1 1
1 1 1 1 1 1 1 2 2 2 3 3 3 3 3 3 3 4 4 3 3 3 3 3 3 3 4 3 3 4 4 4 4 4 4 4 3 3 2 2 2 2 2
1 1 1 1 1 2 2 2 3 3 3 3 3 3 4 4 4 4 3 3 4 4 4 3 3 3 4 5 4 4 4 5 4 4 3 3 3 3 2 3 2 2 2
1 1 2 2 2 2 2 3 3 3 3 3 4 4 4 4 4 4 4 3 3 3 3 3 4 4 4 4 5 5 4 5 4 3 2 2 2 2 2 2 3 3 3
Wind_Direction
192 189 187 192 194 193 206 224 229 238 232 227 232 235 241 248 248 237 251 245 244 269 271 251 261 254 247 241 225 215 213 208 246 277 267 286 295 306 314 298 280 275 278
176 171 189 192 191 196 215 230 223 230 236 231 229 230 237 241 232 228 238 239 234 253 266 255 261 253 257 251 236 231 229 217 222 263 281 285 279 297 304 304 305 293 284
160 159 185 198 202 212 219 226 226 231 241 241 228 229 236 242 240 237 231 234 236 241 240 236 245 230 261 259 247 243 241 235 221 240 273 278 279 296 304 307 311 306 298
169 173 192 212 208 218 223 222 224 227 236 236 230 229 233 239 242 243 238 240 243 246 236 231 236 232 241 248 246 243 244 247 238 245 265 279 278 286 290 300 309 308 299
180 185 205 218 211 220 228 227 227 232 237 228 230 237 239 237 242 241 238 240 240 247 250 249 251 254 256 248 246 239 233 240 244 247 258 269 274 281 286 284 286 298 287
184 196 204 211 217 228 233 231 227 235 239 234 238 243 250 254 255 243 233 232 236 242 259 265 267 267 275 267 252 238 229 230 237 241 252 257 264 263 265 268 274 288 288
186 199 197 201 218 230 235 235 235 240 236 238 245 245 250 259 259 252 238 219 229 245 253 264 275 281 284 275 271 267 256 249 239 230 244 253 257 255 256 264 258 259 266
181 198 207 217 226 233 235 240 243 238 236 241 248 250 254 262 260 251 239 222 233 248 252 251 261 281 280 274 271 274 271 266 257 244 239 249 253 249 239 245 256 266 271
197 210 219 220 229 237 242 245 245 242 248 246 246 248 252 268 267 251 233 227 250 265 265 262 263 271 276 270 260 270 280 281 272 260 254 256 260 258 247 240 248 259 275
230 227 222 216 222 236 244 248 249 242 249 250 255 254 251 263 267 258 234 234 261 277 278 272 267 266 268 255 243 253 265 272 280 286 280 281 274 270 255 235 233 244 263
233 231 231 223 222 229 241 258 249 238 245 255 261 267 261 257 261 249 223 226 242 260 270 274 271 272 266 257 244 246 251 254 260 264 271 278 279 275 269 257 239 233 243
203 221 233 232 234 238 237 267 258 233 237 251 264 279 281 274 261 254 233 237 242 247 262 271 272 267 260 257 252 257 256 248 250 259 268 273 276 280 280 273 258 245 243
205 232 236 241 242 228 221 236 254 251 245 250 249 262 279 284 269 255 246 246 249 249 261 266 270 265 258 255 257 259 251 239 241 253 264 268 267 267 273 278 273 262 258
222 246 250 241 251 264 251 238 236 244 250 253 255 260 270 279 279 279 273 264 255 254 264 276 275 268 260 264 272 267 251 238 237 249 262 270 272 270 270 270 268 282 281
241 256 258 245 229 241 264 257 247 248 243 240 246 244 244 258 261 259 261 267 262 258 256 282 318 317 301 299 286 276 261 247 246 249 255 265 270 272 275 275 264 264 265
235 255 257 256 253 245 257 298 307 272 268 250 239 238 246 245 258 263 265 268 265 244 216 245 260 262 264 271 277 273 260 256 250 248 254 257 262 264 271 278 271 265 268
238 253 257 248 249 252 252 249 283 317 322 295 272 262 256 259 264 265 266 277 271 188 219 244 250 254 263 274 274 268 262 262 253 245 248 253 261 264 262 262 263 270 276
264 259 252 248 251 254 253 250 246 254 283 304 307 292 283 275 276 274 266 61 16 263 241 246 252 255 259 266 271 275 279 285 277 262 262 262 261 262 266 266 260 262 267
274 265 258 257 256 251 249 250 250 251 259 280 300 307 307 288 292 311 100 69 261 274 267 260 256 257 259 261 264 263 266 270 279 270 270 273 271 260 260 261 260 251 250
276 269 269 258 264 262 250 243 247 248 254 267 277 283 293 284 288 311 301 296 282 281 277 271 265 258 255 256 258 259 268 273 276 276 285 288 289 273 262 258 255 254 256
272 268 279 285 275 259 246 240 237 234 243 261 271 269 238 230 248 260 261 261 266 271 268 264 261 258 252 250 251 260 268 275 273 270 272 281 288 285 272 258 254 255 256
263 260 264 269 281 272 249 234 228 236 249 262 278 276 246 239 250 261 267 270 267 262 261 260 263 263 254 241 240 246 257 266 269 269 271 270 267 261 259 256 251 243 236
282 277 286 298 288 268 256 255 244 247 256 262 269 277 274 265 259 261 266 268 266 265 264 255 258 270 272 261 249 239 244 254 258 257 256 261 258 251 244 240 233 226 229
278 266 268 282 283 265 259 264 259 255 254 256 262 270 271 270 272 268 262 264 263 263 265 261 260 269 276 273 264 258 259 264 263 249 241 240 243 243 232 225 225 220 213
294 294 286 278 275 271 272 270 266 260 256 258 261 266 271 271 273 277 277 271 268 267 270 269 270 269 271 270 272 274 281 283 277 265 236 223 230 230 216 211 209 197 189
328 324 319 314 299 286 277 276 277 272 267 265 264 264 267 267 267 271 272 270 265 265 270 271 276 276 278 275 278 279 277 281 282 274 238 213 218 229 214 200 187 182 178
Height
1513 1515 1516 1517 1518 1519 1520 1520 1521 1521 1520 1520 1520 1519 1519 1518 1518 1517 1516 1516 1515 1515 1514 1513 1513 1513 1512 1512 1512 1512 1511 1511 1510 1509 1510 1509 1508 1508 1507 1506 1506 1505 1505
1510 1512 1514 1514 1515 1515 1516 1517 1518 1518 1518 1518 1517 1517 1516 1515 1515 1514 1513 1513 1512 1511 1511 1511 1510 1510 1509 1509 1508 1508 1508 1508 1507 1506 1506 1505 1505 1504 1503 1503 1503 1502 1502
1507 1508 1510 1511 1513 1513 1513 1514 1515 1515 1515 1515 1514 1514 1513 1513 1512 1511 1510 1510 1509 1509 1508 1507 1507 1506 1506 1505 1505 1505 1505 1505 1504 1503 1502 1502 1501 1501 1500 1500 1499 1499 1498
1504 1505 1507 1508 1509 1510 1511 1511 1512 1512 1512 1511 1511 1511 1510 1510 1509 1508 1508 1507 1507 1506 1505 1504 1504 1503 1503 1502 1502 1502 1502 1501 1501 1500 1499 1499 1498 1497 1497 1496 1495 1495 1494
1502 1502 1504 1505 1506 1507 1508 1508 1509 1509 1508 1508 1508 1507 1507 1507 1506 1505 1505 1504 1503 1503 1502 1501 1501 1500 1500 1499 1499 1498 1498 1497 1497 1496 1496 1495 1494 1494 1493 1493 1492 1491 1491
1499 1500 1502 1503 1504 1504 1505 1505 1505 1505 1505 1505 1504 1504 1503 1503 1503 1502 1502 1501 1500 1499 1499 1498 1497 1497 1496 1496 1495 1495 1494 1494 1493 1493 1492 1491 1491 1491 1490 1490 1489 1488 1487
1497 1498 1499 1499 1500 1501 1502 1502 1502 1502 1502 1501 1501 1501 1500 1500 1500 1499 1498 1498 1497 1496 1495 1494 1494 1493 1492 1492 1491 1491 1490 1490 1490 1489 1488 1488 1487 1487 1487 1486 1485 1485 1484
1495 1496 1496 1497 1497 1498 1498 1498 1498 1498 1498 1498 1498 1497 1496 1496 1495 1495 1495 1494 1493 1492 1491 1491 1490 1489 1488 1488 1487 1487 1486 1486 1486 1485 1485 1484 1484 1484 1483 1483 1482 1481 1480
1492 1492 1493 1494 1494 1495 1495 1495 1495 1495 1495 1494 1494 1493 1492 1492 1491 1491 1490 1490 1489 1488 1488 1487 1486 1485 1485 1484 1483 1482 1482 1482 1482 1481 1481 1480 1480 1480 1479 1479 1478 1477 1475
1489 1490 1491 1491 1491 1492 1492 1492 1491 1491 1491 1491 1490 1489 1488 1488 1487 1487 1487 1486 1485 1484 1483 1483 1482 1481 1481 1480 1479 1478 1478 1477 1477 1477 1476 1476 1475 1475 1475 1474 1473 1473 1471
1487 1488 1488 1488 1488 1488 1488 1488 1488 1487 1487 1487 1486 1485 1484 1484 1483 1483 1483 1482 1481 1480 1479 1478 1478 1477 1476 1476 1475 1475 1474 1474 1473 1473 1472 1471 1471 1470 1470 1469 1469 1468 1467
1484 1484 1485 1484 1485 1485 1485 1485 1484 1483 1483 1482 1482 1481 1480 1480 1479 1479 1479 1478 1478 1477 1475 1474 1473 1473 1472 1471 1471 1471 1470 1470 1469 1468 1468 1467 1466 1466 1465 1465 1464 1464 1463
1480 1480 1481 1481 1481 1481 1481 1480 1480 1480 1479 1478 1477 1477 1476 1476 1476 1475 1475 1474 1473 1472 1471 1470 1469 1468 1468 1467 1467 1466 1466 1465 1465 1464 1463 1463 1462 1462 1461 1460 1460 1459 1459
1476 1476 1476 1476 1476 1477 1477 1477 1476 1476 1475 1474 1473 1473 1472 1472 1471 1471 1470 1469 1468 1467 1467 1466 1465 1464 1464 1463 1462 1462 1461 1461 1460 1460 1459 1459 1458 1457 1457 1456 1456 1455 1455
1473 1473 1473 1473 1472 1472 1473 1473 1472 1472 1472 1471 1470 1469 1468 1467 1467 1467 1466 1465 1464 1463 1462 1461 1460 1460 1459 1458 1457 1457 1457 1456 1456 1455 1455 1454 1454 1453 1453 1452 1451 1451 1451
1470 1469 1469 1469 1469 1469 1469 1469 1468 1468 1468 1467 1467 1466 1465 1465 1464 1463 1462 1461 1460 1459 1458 1456 1456 1455 1454 1454 1453 1452 1452 1452 1451 1451 1451 1450 1450 1449 1449 1448 1448 1447 1447
1467 1467 1466 1466 1466 1466 1466 1465 1464 1464 1464 1463 1462 1462 1461 1461 1460 1459 1458 1457 1456 1454 1453 1452 1452 1451 1451 1450 1449 1449 1448 1448 1448 1447 1447 1446 1446 1445 1445 1444 1444 1443 1443
1465 1465 1464 1464 1464 1463 1463 1462 1461 1460 1459 1458 1458 1458 1458 1457 1456 1455 1454 1453 1451 1450 1449 1448 1448 1448 1447 1447 1446 1445 1445 1445 1444 1444 1443 1443 1442 1442 1441 1441 1440 1440 1439
1463 1462 1462 1461 1460 1460 1459 1459 1458 1457 1456 1455 1454 1454 1454 1453 1453 1451 1450 1449 1447 1446 1446 1445 1445 1444 1444 1443 1443 1443 1442 1442 1441 1441 1440 1439 1439 1438 1438 1437 1437 1436 1436
1461 1460 1459 1458 1457 1456 1456 1455 1454 1454 1453 1452 1451 1451 1450 1450 1449 1448 1447 1446 1445 1444 1443 1443 1442 1441 1441 1440 1440 1440 1440 1439 1439 1438 1437 1436 1436 1435 1434 1434 1434 1433 1433
1458 1457 1456 1455 1454 1453 1452 1452 1451 1451 1450 1449 1449 1448 1448 1447 1446 1445 1444 1443 1443 1442 1441 1440 1440 1439 1438 1438 1437 1437 1437 1436 1436 1435 1434 1433 1433 1432 1432 1432 1431 1431 1431
1456 1455 1454 1453 1452 1451 1450 1450 1449 1448 1448 1447 1446 1446 1445 1444 1443 1443 1442 1441 1440 1440 1439 1438 1438 1437 1436 1435 1435 1434 1434 1433 1433 1432 1432 1431 1430 1430 1429 1429 1429 1428 1428
1454 1453 1452 1451 1450 1449 1448 1447 1447 1446 1445 1445 1444 1443 1442 1442 1441 1440 1439 1439 1438 1437 1436 1436 1435 1434 1433 1433 1432 1432 1431 1430 1430 1430 1429 1428 1428 1427 1427 1427 1427 1426 1427
1453 1451 1450 1449 1449 1447 1446 1445 1444 1444 1443 1442 1441 1440 1440 1439 1438 1437 1437 1436 1435 1434 1433 1433 1432 1431 1431 1430 1430 1429 1428 1428 1427 1427 1426 1425 1425 1425 1425 1425 1425 1425 1425
1451 1450 1449 1448 1447 1446 1445 1443 1442 1442 1441 1440 1439 1438 1437 1436 1435 1434 1434 1433 1432 1431 1430 1430 1429 1428 1428 1427 1427 1426 1426 1425 1424 1424 1423 1423 1423 1423 1423 1423 1423 1423 1423
1449 1448 1447 1446 1445 1444 1443 1441 1440 1439 1438 1437 1436 1435 1434 1433 1432 1431 1431 1430 1429 1428 1427 1427 1426 1425 1425 1424 1424 1423 1423 1423 1422 1421 1421 1420 1420 1420 1420 1420 1420 1421 1421